Location: Champseau
(45.8333°N, 1.7667°E)
Time: 06:32:26
(UTC+00:00)

SJ-6B - Pass Details

Date: 18 April 2021
Orbit: 510 x 579 km, 97.6° (Epoch: 14 May)

Event Time Altitude Azimuth Distance (km) Brightness Sun altitude
Exits shadow 19:36:33 - 165° (SSE) 2,362 5.7 -9.3°
Reaches altitude 10° 19:38:02 10° 165° (SSE) 1,727 5.0 -9.6°
Maximum altitude 19:41:46 88° 75° (ENE) 519 2.6 -10.2°
Drops below altitude 10° 19:45:32 10° 348° (NNW) 1,752 6.0 -10.7°
Sets 19:47:39 0° 348° (NNW) 2,651 7.0 -11.1°
